This is the latest recevied weather packets stored in our database for station/object HK6REC-25. If no packets are shown the sender has not sent any weather packets the latest 10 day(s).
| Time | Temp. | Humidity | Pressure | Rain* | Wind** | Luminosity | Snow |
|---|---|---|---|---|---|---|---|
| 1778049311 | 13.33° C | 94% | 1015 hPa | 0 mm | - | - | - |
| 1778047510 | 14.44° C | 94% | 1015 hPa | 0 mm | - | - | - |
| 1778045708 | 15.56° C | 94% | 1015 hPa | 0 mm | - | - | - |
| 1778043907 | 13.89° C | 93% | 1016 hPa | 0 mm | - | - | - |
| 1778042106 | 15° C | 93% | 1015 hPa | 0 mm | - | - | - |
| 1778040305 | 14.44° C | 94% | 1016 hPa | 0 mm | - | - | - |
| 1778038504 | 15.56° C | 94% | 1015 hPa | 0 mm | - | - | - |
| 1778036703 | 14.44° C | 92% | 1016 hPa | 0 mm | - | - | - |
| 1778034902 | 15.56° C | 92% | 1015 hPa | 0 mm | - | - | - |
| 1778033101 | 13.89° C | 88% | 1015 hPa | 0 mm | - | - | - |
| 1778031299 | 15° C | 88% | 1014 hPa | 0 mm | - | - | - |
| 1778029498 | 14.44° C | 91% | 1014 hPa | 0 mm | - | - | - |
| 1778027697 | 14.44° C | 88% | 1013 hPa | 0 mm | - | - | - |
| 1778025896 | 14.44° C | 81% | 1012 hPa | 0 mm | - | - | - |
| 1778024095 | 15.56° C | 81% | 1012 hPa | 0 mm | - | - | - |
| 1778022294 | 15.56° C | 80% | 1011 hPa | 0 mm | - | - | - |
| 1778020493 | 16.67° C | 80% | 1011 hPa | 0 mm | - | - | - |
| 1778018691 | 17.78° C | 80% | 1010 hPa | 0 mm | - | - | - |
| 1778016890 | 18.89° C | 80% | 1010 hPa | 0 mm | - | - | - |
| 1778015089 | 18.89° C | 83% | 1010 hPa | 0 mm | - | - | - |
| 1778013289 | 18.33° C | 76% | 1010 hPa | 0 mm | - | - | - |
| 1778011487 | 19.44° C | 73% | 1010 hPa | 0 mm | - | - | - |
| 1778009686 | 20.56° C | 73% | 1009 hPa | 0 mm | - | - | - |
| 1778007885 | 20.56° C | 73% | 1010 hPa | 0 mm | - | - | - |
| 1778006084 | 21.67° C | 74% | 1010 hPa | 0 mm | - | - | - |
* Rain latest hour (hover to see other rain measurements)
** Current wind speed in m/s (hover to see current wind gust speed)